Weather in zheleznodorozhnaya stantsiya Dikaya

Russia / Vologda Oblast     59°14′42″N   39°29′24″E
temp.,
°C
wind,
m/s
gust,
m/s
humid.,
%
clouds,
%
prec.,
mm/h
press.,
hPa
HPBL,
m
16 may, sun
sun1600:00+13ssw41094100 0.8 1006240
03:00+12ssw513937 0.9 1006357
06:00+13ssw512925 0.0 1007436
09:00+16ssw69769 0.0 1007826
12:00+18sw796449 0.2 10081367
15:00+19sw7106419 0.3 10091522
18:00+18sw510725 0.4 10091105
21:00+13sw38925 0.6 1010180
17 may, mon
mon1700:00+12wsw38974 0.0 1012185
03:00+11w259710 0.0 1014103
06:00+13w139214 0.0 1016150
09:00+17n117424 0.0 1016600
12:00+21sse125996 0.1 10171434
15:00+22se2354100 0.1 10171597
18:00+21se2566100 0.0 1016359
21:00+16ese35855 0.0 101673
18 may, tue
tue1800:00+14ese3118969 0.0 1016204
03:00+13ese4129020 0.1 1015270
06:00+14ese411915 0.4 1015315
09:00+20se59705 0.4 1014505
12:00+25se69495 0.0 10131139
15:00+27sse511435 0.0 10132655
18:00+24se510569 0.0 1012836
21:00+19se413784 0.0 1013378
19 may, wed
wed1900:00+16se412845 0.0 1012289
03:00+15se411905 0.0 1012236
06:00+17se412825 0.0 1012344
09:00+23se513565 0.0 1011636
12:00+27se612415 0.0 10111820
15:00+28se611425 0.0 10102382
18:00+25se612520 0.0 1009939
21:00+19ese414670 0.0 1009442
20 may, thu
thu2000:00+19se61572100 0.0 1009722
03:00+17se4119064 0.0 1008416
06:00+17ese37888 0.0 1007312
09:00+21se610665 0.0 1006955
12:00+21se7116447 0.3 10051513
15:00+20sse6106995 1.6 10051326
18:00+18sse6107450 1.0 10041078
21:00+14sse511885 1.5 1004611